Location: Bambrugge
(50.9212°N, 3.9299°E)
Time: 20:56:13
(UTC+00:00)

CZ-2D R/B - Pass Details

Date: 23 May 2024
Orbit: 790 x 843 km, 98.8° (Epoch: 16 June)

Event Time Altitude Azimuth Distance (km) Brightness Sun altitude
Rises 00:10:36 0° 29° (NNE) 3,412 6.6 -18.1°
Reaches altitude 10° 00:14:20 10° 55° (NE) 2,467 5.2 -18.1°
Maximum altitude 00:17:01 14° 85° (E) 2,203 4.5 -18.0°
Drops below altitude 10° 00:19:42 10° 115° (ESE) 2,448 4.5 -17.9°
Enters shadow 00:21:26 - 129° (SE) 2,827 4.6 -17.9°
